User: anonymous   Login
Location: Stoke Bliss
(52.2667°N, 2.5167°W)
Time: 11:29:32
(UTC+00:00)
Language:

ERS-2 - Orbit

View from above orbital plane
View from above orbital plane
View from above satellite
View from above satellite

Ground track
Ground track

The orbit data is extracted from the following two-line orbital elements,

1 23560U 95021A   21134.12427971  .00001057  00000-0  47520-4 0  9992
2 23560  98.5513 339.4925 0004535 115.5382 244.6321 15.23895585392496
Epoch (UTC): 14 May 2021 02:58:57
Eccentricity: 0.0004535
inclination: 98.5513°
perigee height: 491 km
apogee height: 497 km
right ascension of ascending node: 339.4925°
argument of perigee: 115.5382°
revolutions per day: 15.23895585
mean anomaly at epoch: 244.6321°
orbit number at epoch: 39249

The dashed part of the orbit path shows where the satellite is in the earth's shadow,  

DLR